Temperature
16 17 17 17 17 17 17 17 17 17 17 17 17 17 17 17 17 17 17 16 16 16 16 16 15 15 15 15 15 15 15 15 15 15 15 15 15 15
16 16 16 16 16 16 17 17 17 16 16 17 17 17 17 17 17 16 16 16 16 16 16 15 15 15 15 15 15 15 15 15 15 15 15 14 14 14
16 16 16 16 16 16 16 16 16 16 16 16 16 16 16 16 16 16 16 16 16 15 15 15 15 15 15 15 15 15 15 15 15 15 14 14 14 14
16 16 16 16 16 16 16 15 15 15 15 15 16 15 16 16 15 15 15 15 15 15 15 15 15 14 15 15 15 15 15 14 14 14 14 14 14 14
15 15 15 15 15 15 15 15 15 15 15 15 15 15 15 15 15 15 14 14 14 14 14 14 14 14 14 14 14 14 14 14 14 14 14 14 14 14
15 15 15 14 14 14 14 14 14 14 14 14 14 14 14 14 14 14 14 14 14 14 13 13 13 13 13 13 13 13 13 13 13 13 13 13 13 13
14 14 14 13 13 13 13 13 13 13 13 13 13 13 13 12 12 12 12 12 13 12 13 13 13 13 12 12 12 12 12 12 12 12 12 12 12 12
13 13 13 12 12 12 12 12 12 12 12 12 12 11 11 11 11 10 10 11 11 11 11 11 11 11 11 11 11 11 11 11 11 11 11 11 12 12
12 12 12 12 12 12 11 11 11 11 11 10 10 10 10 9 9 9 9 9 9 9 9 10 10 10 10 10 10 10 10 10 10 10 10 10 10 11
11 11 11 11 11 11 10 10 10 10 9 9 9 8 8 8 8 8 8 8 8 8 8 8 8 8 9 9 9 9 9 9 9 9 9 9 10 10
10 10 10 10 10 9 9 9 9 9 8 8 8 7 7 7 7 7 7 7 7 7 7 6 7 7 7 8 8 8 8 8 8 8 8 8 8 9
10 9 9 9 8 8 8 8 8 8 7 7 7 7 6 6 6 6 6 5 5 5 5 5 5 5 5 6 6 6 7 7 7 7 7 7 7 7
9 9 8 8 7 7 7 7 6 6 6 6 6 6 6 5 5 5 5 4 4 4 4 4 4 4 4 4 4 5 5 6 6 6 6 6 6 6
8 8 7 7 7 6 6 6 6 5 5 5 5 5 5 4 4 4 4 4 3 3 3 3 3 3 3 3 3 4 4 4 5 5 5 5 6 6
7 7 6 6 6 6 5 5 5 5 4 4 4 4 3 3 3 3 3 3 3 3 3 2 2 2 2 2 2 2 3 3 4 4 4 4 5 5
6 6 6 5 5 5 5 4 4 4 3 3 3 2 2 2 2 2 2 2 2 2 2 2 2 1 1 2 2 2 2 2 3 3 3 4 4 4
5 5 5 5 4 4 4 3 3 3 2 2 2 2 1 1 1 1 1 1 1 1 1 1 1 1 1 1 1 2 1 2 2 2 2 3 4 4
5 5 4 4 3 3 3 2 2 2 1 1 1 1 1 0 0 0 0 -0 -0 -0 0 0 0 1 1 1 1 1 1 1 2 2 2 2 3 4
4 4 3 3 2 2 2 2 1 1 1 0 0 0 0 0 -0 -0 -0 -0 -0 -0 -0 -0 -0 -1 -1 -0 1 1 1 1 1 2 2 2 2 3
3 3 2 2 2 2 1 1 1 1 0 0 -0 -0 -0 -0 -0 -0 -0 -1 -1 -1 -0 -0 -0 -0 -1 -0 -0 1 1 1 1 1 1 2 2 3
2 2 2 2 1 1 1 1 0 0 -0 -0 -0 -0 -0 -0 -0 -1 -1 -1 -1 -1 -1 -1 -0 -0 -0 -0 0 0 1 1 1 1 1 1 2 3
2 2 1 1 1 1 1 0 0 -0 -0 -0 -0 -0 -0 -1 -1 -1 -1 -1 -1 -1 -1 -1 -0 -0 -0 -0 -0 0 0 1 1 1 1 1 1 1
2 1 1 1 1 1 0 0 -0 -0 -0 -0 -0 -0 -1 -1 -1 -1 -1 -1 -1 -1 -1 -1 -0 -0 -0 -0 -0 -0 0 0 1 1 2 2 1 2
Wind_Speed
2 2 1 0 1 1 2 3 3 1 3 3 3 3 4 6 9 10 12 16 19 20 20 20 19 19 19 19 19 19 19 18 18 18 18 18 18 18
2 2 1 0 1 2 2 2 2 4 2 2 2 3 3 3 4 5 8 10 13 16 17 18 19 20 20 20 20 20 20 20 20 20 20 20 20 19
1 2 1 1 2 2 2 2 2 2 2 3 2 3 3 3 3 3 4 5 7 10 13 16 17 18 19 19 19 20 20 21 21 21 21 20 20 20
2 3 2 2 3 3 3 3 2 2 1 1 2 3 3 3 3 3 4 5 6 8 10 11 13 15 17 18 18 19 19 20 20 20 20 20 20 20
4 4 3 4 4 3 4 3 3 3 2 1 2 2 2 3 3 3 4 5 7 8 8 8 10 12 13 14 15 16 17 18 19 20 20 20 20 20
6 6 6 5 4 4 4 4 3 4 3 2 2 3 3 3 3 3 4 4 5 7 8 9 11 12 13 14 15 15 15 16 17 18 19 20 20 20
8 7 7 9 8 6 5 4 4 4 3 3 3 3 3 4 3 3 4 4 4 3 5 7 8 8 11 13 13 13 14 15 16 17 17 18 19 19
7 7 8 9 10 11 11 10 8 5 3 3 2 2 3 3 3 3 3 4 4 4 5 6 4 5 7 10 13 15 15 15 14 13 13 14 15 17
7 7 7 8 9 7 9 12 12 13 9 3 3 2 2 3 3 3 3 3 4 5 4 4 4 5 7 12 15 15 15 16 15 14 14 14 14 15
9 8 8 7 8 7 7 8 8 7 8 6 3 3 4 4 2 2 3 4 4 4 2 3 4 4 6 11 12 13 15 16 17 16 16 16 15 16
8 7 7 7 9 10 8 7 7 7 10 13 12 11 11 12 8 4 4 4 4 4 2 2 3 5 5 5 9 13 16 18 19 19 19 18 18 16
6 6 8 7 8 8 6 6 6 5 7 9 10 11 12 13 13 6 3 3 3 4 4 4 4 4 5 4 4 11 14 16 18 19 19 19 18 12
4 3 3 7 7 8 6 4 3 3 4 6 6 6 6 7 8 9 6 2 3 3 5 4 4 3 4 5 5 6 7 9 12 14 17 18 18 13
3 2 3 6 7 8 6 6 8 7 5 5 5 5 5 5 5 8 10 9 6 6 8 6 3 4 5 6 6 5 6 9 8 7 10 15 16 17
3 5 6 8 8 7 9 10 8 6 5 5 4 4 4 5 5 6 7 10 11 11 11 10 5 5 5 6 6 6 7 7 6 6 6 7 7 8
5 7 10 12 9 9 8 7 6 4 3 3 3 4 4 5 5 4 4 5 5 6 9 14 11 6 6 8 8 9 8 6 7 8 8 8 8 9
5 6 7 6 7 6 5 5 5 5 5 4 4 4 4 5 5 5 4 4 5 6 7 6 11 11 7 9 9 8 8 8 8 8 8 10 10 9
8 6 5 5 5 4 4 4 4 4 4 4 4 4 5 5 5 5 5 5 6 7 7 7 8 8 7 6 7 7 7 8 9 10 8 9 11 10
8 5 4 4 3 3 3 3 3 4 4 4 4 5 5 6 6 7 7 7 7 8 8 7 7 6 10 12 7 7 8 11 10 10 9 9 11 12
4 4 3 3 2 2 2 2 3 4 4 4 4 5 5 6 7 7 8 8 9 9 9 8 7 7 8 10 9 11 14 10 9 11 11 10 10 12
3 2 2 2 1 1 1 2 2 3 3 4 4 6 6 6 7 8 8 11 10 8 10 10 10 14 9 7 9 9 8 12 14 11 11 11 11 9
2 1 1 1 1 1 1 1 2 3 4 4 5 6 6 6 7 9 9 9 9 9 11 10 11 10 7 8 11 11 11 12 13 17 15 13 9 7
1 1 1 0 0 0 0 1 2 3 4 5 6 6 7 7 7 7 8 9 9 10 11 11 10 8 8 8 10 10 12 12 10 10 10 13 16 18
Wind_Direction
134 122 122 105 77 99 125 145 151 200 288 295 311 309 282 249 244 232 233 237 236 236 238 242 245 248 249 250 250 250 250 251 252 253 254 255 257 258
146 123 97 66 58 63 77 93 139 165 222 280 289 312 332 310 272 243 245 249 246 244 245 248 250 252 253 253 253 253 253 253 253 254 255 256 257 259
113 108 74 61 54 40 54 62 70 127 194 289 298 327 2 354 348 322 295 286 277 267 261 261 263 264 263 261 259 259 258 257 257 257 258 259 259 260
100 86 60 72 56 41 49 44 40 54 141 290 323 342 358 355 350 352 347 331 312 300 289 281 282 281 277 273 270 268 265 264 263 262 261 262 261 260
88 85 65 74 63 53 52 43 32 38 53 66 327 335 343 2 359 353 355 354 342 330 330 323 317 313 306 297 289 283 278 274 271 267 264 263 262 262
78 76 67 68 70 61 56 41 39 36 33 38 6 350 344 343 13 355 344 346 337 340 352 351 345 339 329 319 310 299 292 285 278 273 270 268 267 266
80 74 70 70 66 62 64 50 50 46 35 29 13 3 357 0 356 343 338 327 323 353 348 337 336 334 330 327 322 318 315 307 296 286 279 274 272 270
92 79 72 56 55 56 59 57 55 52 42 34 15 2 339 333 331 341 342 351 324 330 345 320 332 329 326 328 332 336 337 334 328 316 302 291 282 276
89 80 73 57 47 47 50 50 44 44 46 51 22 339 316 310 325 328 328 314 283 294 329 304 323 324 325 329 335 344 347 345 340 333 325 314 302 291
83 81 76 53 42 49 53 47 36 26 25 31 6 311 311 302 287 286 286 304 295 297 328 293 309 310 319 318 329 347 351 348 343 337 329 320 312 304
78 77 77 63 47 54 56 44 26 8 13 17 21 24 25 24 21 20 3 1 328 307 329 314 302 309 299 296 317 340 342 336 331 328 326 322 316 310
71 58 60 57 48 56 60 50 26 353 355 7 15 20 24 24 27 31 14 354 326 310 327 333 308 326 312 299 314 325 324 321 321 320 319 318 316 309
75 43 23 35 46 53 60 60 26 9 11 17 16 12 9 10 8 7 7 7 336 301 313 324 308 309 283 294 299 297 304 308 311 309 310 310 311 306
66 22 10 35 52 55 57 49 41 42 35 28 22 8 2 355 346 346 350 347 331 301 311 325 309 306 302 302 297 298 304 300 296 294 300 307 309 306
46 45 56 58 54 47 46 47 45 44 37 29 12 349 330 326 332 337 340 343 336 334 339 334 322 310 301 296 296 295 302 298 292 301 302 299 296 298
40 44 53 57 58 51 44 42 41 41 41 20 343 325 329 339 341 335 329 332 330 318 322 327 322 312 303 293 291 294 293 290 302 302 299 296 292 290
60 53 50 48 46 40 37 31 24 20 17 357 350 343 339 339 329 329 328 330 324 312 315 317 320 312 287 285 291 289 294 298 298 300 303 302 296 289
77 65 56 54 54 46 37 19 8 2 352 349 349 345 338 332 327 327 326 321 315 310 309 310 319 321 317 297 257 277 294 298 300 299 295 297 298 296
75 69 61 52 47 40 32 21 359 346 350 358 357 349 342 335 330 326 325 322 317 312 309 308 312 316 320 320 294 274 293 302 302 301 297 294 296 296
70 75 65 54 53 40 24 15 2 357 359 353 346 338 334 330 326 321 319 317 316 314 313 310 307 307 306 304 300 299 297 289 297 301 302 300 293 286
65 67 69 71 61 37 18 8 5 354 344 337 331 327 324 322 318 315 314 314 314 312 312 310 303 305 298 293 295 297 297 298 297 296 301 303 305 303
83 79 72 88 79 16 355 353 351 341 334 326 319 317 315 313 310 310 311 312 311 308 307 305 305 308 305 304 306 306 308 312 310 306 296 288 295 301
124 126 149 154 138 345 332 331 331 319 313 310 309 308 309 310 308 305 305 305 306 307 310 311 313 311 308 306 307 308 311 315 316 317 313 308 303 293
Height
1555 1556 1557 1557 1558 1558 1558 1558 1559 1558 1558 1558 1558 1558 1557 1558 1558 1558 1558 1559 1558 1558 1558 1558 1557 1557 1556 1555 1555 1555 1554 1554 1554 1554 1553 1553 1553 1553
1553 1554 1555 1555 1556 1556 1556 1556 1556 1556 1556 1555 1555 1555 1555 1555 1555 1555 1555 1555 1555 1554 1554 1554 1553 1552 1552 1551 1550 1550 1550 1549 1549 1549 1548 1548 1547 1547
1552 1552 1553 1553 1554 1554 1554 1554 1554 1554 1553 1553 1553 1552 1552 1551 1551 1551 1551 1551 1550 1550 1550 1549 1548 1548 1547 1546 1545 1545 1544 1544 1543 1543 1542 1542 1541 1541
1550 1550 1551 1551 1551 1551 1551 1551 1551 1550 1550 1549 1549 1549 1548 1548 1547 1547 1547 1546 1546 1545 1545 1544 1543 1542 1541 1540 1539 1538 1538 1537 1536 1536 1535 1535 1534 1534
1548 1548 1549 1549 1549 1549 1548 1548 1548 1547 1547 1546 1545 1545 1544 1544 1543 1543 1542 1542 1541 1540 1539 1538 1537 1536 1535 1534 1532 1531 1531 1530 1529 1528 1528 1527 1527 1526
1545 1546 1546 1546 1546 1546 1546 1545 1545 1544 1543 1543 1542 1541 1540 1539 1538 1537 1536 1536 1535 1534 1533 1532 1530 1529 1528 1527 1526 1524 1523 1522 1521 1521 1520 1519 1518 1518
1543 1543 1544 1544 1544 1544 1543 1542 1542 1541 1540 1539 1538 1537 1536 1535 1534 1532 1531 1530 1529 1528 1526 1526 1524 1523 1522 1520 1519 1517 1516 1515 1514 1513 1512 1511 1510 1509
1541 1541 1542 1542 1542 1542 1541 1540 1539 1538 1537 1536 1535 1534 1533 1532 1530 1529 1527 1525 1524 1524 1521 1520 1519 1516 1515 1514 1513 1511 1509 1508 1506 1505 1504 1502 1501 1501
1540 1540 1541 1541 1540 1540 1539 1538 1537 1536 1535 1534 1532 1531 1530 1528 1527 1525 1524 1522 1520 1518 1516 1513 1513 1511 1510 1508 1507 1505 1503 1501 1499 1498 1496 1495 1494 1492
1539 1539 1540 1539 1539 1538 1537 1536 1535 1534 1533 1531 1530 1529 1527 1526 1524 1522 1520 1518 1517 1516 1512 1509 1507 1505 1504 1503 1501 1499 1497 1495 1493 1491 1489 1488 1486 1484
1538 1539 1539 1538 1538 1537 1536 1535 1534 1533 1532 1530 1528 1527 1525 1523 1521 1519 1517 1515 1512 1511 1509 1506 1502 1499 1497 1496 1495 1493 1491 1489 1487 1485 1482 1480 1478 1476
1538 1538 1537 1537 1536 1535 1534 1533 1532 1531 1530 1528 1527 1525 1523 1521 1519 1517 1514 1512 1509 1507 1505 1502 1498 1495 1491 1489 1488 1486 1484 1482 1480 1477 1475 1473 1471 1468
1537 1537 1536 1536 1535 1534 1533 1532 1531 1530 1528 1527 1525 1523 1521 1519 1517 1515 1513 1510 1507 1504 1502 1499 1495 1492 1489 1483 1481 1479 1477 1474 1472 1469 1467 1465 1463 1461
1536 1536 1536 1535 1535 1534 1532 1531 1530 1529 1527 1525 1523 1521 1519 1516 1514 1512 1510 1508 1505 1502 1499 1496 1492 1488 1484 1479 1474 1472 1471 1468 1465 1462 1460 1458 1456 1454
1535 1535 1535 1535 1534 1533 1532 1530 1529 1527 1525 1523 1521 1519 1517 1514 1512 1509 1506 1503 1501 1498 1495 1491 1488 1483 1480 1475 1470 1466 1463 1461 1459 1456 1453 1450 1448 1446
1536 1535 1535 1534 1533 1532 1531 1529 1528 1526 1524 1522 1519 1517 1515 1512 1509 1505 1501 1498 1494 1492 1490 1486 1483 1478 1474 1470 1466 1462 1459 1456 1452 1449 1446 1443 1440 1438
1536 1535 1535 1534 1533 1532 1530 1529 1527 1525 1523 1520 1518 1515 1512 1509 1505 1502 1498 1495 1491 1487 1483 1480 1477 1474 1470 1466 1461 1458 1454 1450 1447 1443 1439 1435 1433 1431
1536 1535 1535 1534 1533 1532 1530 1528 1526 1524 1521 1519 1516 1512 1509 1506 1502 1499 1495 1492 1488 1484 1480 1476 1472 1467 1463 1460 1458 1453 1449 1445 1441 1437 1434 1429 1424 1423
1536 1535 1535 1534 1533 1531 1530 1527 1525 1523 1520 1517 1514 1510 1507 1503 1499 1495 1492 1488 1484 1481 1477 1474 1470 1465 1460 1455 1451 1450 1445 1440 1435 1432 1428 1424 1419 1415
1537 1536 1535 1534 1532 1531 1529 1527 1524 1521 1518 1515 1512 1508 1504 1500 1496 1492 1489 1485 1481 1477 1474 1471 1467 1463 1459 1454 1448 1443 1441 1436 1432 1427 1423 1419 1414 1410
1537 1536 1535 1533 1532 1530 1528 1525 1523 1520 1517 1513 1510 1506 1501 1497 1493 1489 1486 1482 1478 1475 1471 1467 1464 1461 1456 1451 1445 1440 1436 1433 1429 1424 1419 1414 1409 1404
1537 1536 1534 1533 1531 1529 1527 1524 1521 1518 1515 1511 1507 1503 1499 1495 1491 1487 1483 1479 1476 1472 1468 1464 1460 1456 1452 1448 1442 1437 1432 1428 1424 1421 1417 1412 1407 1401
1536 1535 1534 1532 1530 1528 1526 1523 1520 1516 1513 1509 1505 1501 1497 1493 1489 1485 1481 1477 1473 1469 1465 1461 1457 1453 1449 1444 1440 1434 1429 1424 1419 1414 1411 1408 1404 1399